Tillbaka till svenska Fidonet
English   Information   Debug  
FILM   0/18
FNEWS_PUBLISH   5026
FN_SYSOP   42247
FN_SYSOP_OLD1   71952
FTP_FIDO   0/2
FTSC_PUBLIC   0/13979
FUNNY   0/4886
GENEALOGY.EUR   0/71
GET_INFO   105
GOLDED   0/408
HAM   584/16786
HOLYSMOKE   0/6791
HOT_SITES   0/1
HTMLEDIT   0/71
HUB203   466
HUB_100   264
HUB_400   39
HUMOR   0/29
IC   0/2851
INTERNET   0/424
INTERUSER   0/3
IP_CONNECT   719
JAMNNTPD   0/233
JAMTLAND   0/47
KATTY_KORNER   0/41
LAN   0/16
LINUX-USER   0/19
LINUXHELP   0/1155
LINUX   0/22427
LINUX_BBS   0/957
mail   18.68
mail_fore_ok   249
MENSA   0/341
MODERATOR   0/102
MONTE   0/992
MOSCOW_OKLAHOMA   0/1245
MUFFIN   0/783
MUSIC   0/321
N203_STAT   938
N203_SYSCHAT   313
NET203   321
NET204   69
NET_DEV   0/10
NORD.ADMIN   0/101
NORD.CHAT   0/2572
NORD.FIDONET   189
NORD.HARDWARE   0/28
NORD.KULTUR   0/114
NORD.PROG   0/32
NORD.SOFTWARE   0/88
NORD.TEKNIK   0/58
NORD   0/453
OCCULT_CHAT   0/93
OS2BBS   0/787
OS2DOSBBS   0/580
OS2HW   0/42
OS2INET   0/37
OS2LAN   0/134
OS2PROG   0/36
OS2REXX   0/113
OS2USER-L   207
OS2   0/4835
OSDEBATE   0/18996
PASCAL   0/490
PERL   0/457
PHP   0/45
POINTS   0/405
POLITICS   0/29554
POL_INC   0/14731
PSION   103
R20_ADMIN   1133
R20_AMATORRADIO   0/2
R20_BEST_OF_FIDONET   16
R20_CHAT   0/897
R20_DEPP   0/3
R20_DEV   400
R20_ECHO2   1932
R20_ECHOPRES   0/35
R20_ESTAT   0/719
R20_FIDONETPROG...
...RAM.MYPOINT
  0/2
R20_FIDONETPROGRAM   0/22
R20_FIDONET   0/248
R20_FILEFIND   0/24
R20_FILEFOUND   0/22
R20_HIFI   0/3
R20_INFO2   3826
R20_INTERNET   0/12940
R20_INTRESSE   0/60
R20_INTR_KOM   0/99
R20_KANDIDAT.CHAT   42
R20_KANDIDAT   28
R20_KOM_DEV   112
R20_KONTROLL   0/13360
R20_KORSET   0/18
R20_LOKALTRAFIK   0/24
R20_MODERATOR   0/1852
R20_NC   76
R20_NET200   245
R20_NETWORK.OTH...
...ERNETS
  0/13
R20_OPERATIVSYS...
...TEM.LINUX
  0/44
R20_PROGRAMVAROR   0/1
R20_REC2NEC   534
R20_SFOSM   0/341
R20_SF   0/108
R20_SPRAK.ENGLISH   0/1
R20_SQUISH   107
R20_TEST   2
R20_WORST_OF_FIDONET   20
RAR   0/9
RA_MULTI   106
RA_UTIL   0/162
REGCON.EUR   0/2072
REGCON   0/13
SCIENCE   0/1206
SF   0/239
SHAREWARE_SUPPORT   0/5146
SHAREWRE   0/14
SIMPSONS   0/169
STATS_OLD1   0/2539.065
STATS_OLD2   0/2530
STATS_OLD3   0/2395.095
STATS_OLD4   0/1692.25
SURVIVOR   0/495
SYSOPS_CORNER   0/3
SYSOP   0/84
TAGLINES   0/112
TEAMOS2   0/4530
TECH   0/2617
TEST.444   0/105
TRAPDOOR   0/19
TREK   0/755
TUB   0/290
UFO   0/40
UNIX   0/1316
USA_EURLINK   0/102
USR_MODEMS   0/1
VATICAN   0/2740
VIETNAM_VETS   0/14
VIRUS   0/378
VIRUS_INFO   0/201
VISUAL_BASIC   0/473
WHITEHOUSE   0/5187
WIN2000   0/101
WIN32   0/30
WIN95   0/4291
WIN95_OLD1   0/70272
WINDOWS   0/1517
WWB_SYSOP   0/419
WWB_TECH   0/810
ZCC-PUBLIC   0/1
ZEC   4

 
4DOS   0/134
ABORTION   0/7
ALASKA_CHAT   0/506
ALLFIX_FILE   0/1313
ALLFIX_FILE_OLD1   0/7997
ALT_DOS   0/152
AMATEUR_RADIO   0/1039
AMIGASALE   0/14
AMIGA   0/331
AMIGA_INT   0/1
AMIGA_PROG   0/20
AMIGA_SYSOP   0/26
ANIME   0/15
ARGUS   0/924
ASCII_ART   0/340
ASIAN_LINK   0/651
ASTRONOMY   0/417
AUDIO   0/92
AUTOMOBILE_RACING   0/105
BABYLON5   0/17862
BAG   135
BATPOWER   0/361
BBBS.ENGLISH   0/382
BBSLAW   0/109
BBS_ADS   0/5290
BBS_INTERNET   0/507
BIBLE   0/3563
BINKD   0/1119
BINKLEY   0/215
BLUEWAVE   0/2173
CABLE_MODEMS   0/25
CBM   0/46
CDRECORD   0/66
CDROM   0/20
CLASSIC_COMPUTER   0/378
COMICS   0/15
CONSPRCY   0/899
COOKING   42382
COOKING_OLD1   0/24719
COOKING_OLD2   0/40862
COOKING_OLD3   0/37489
COOKING_OLD4   0/35496
COOKING_OLD5   9370
C_ECHO   0/189
C_PLUSPLUS   0/31
DIRTY_DOZEN   0/201
DOORGAMES   0/2388
DOS_INTERNET   0/196
duplikat   6102
ECHOLIST   11946/18295
EC_SUPPORT   0/318
ELECTRONICS   0/359
ELEKTRONIK.GER   1534
ENET.LINGUISTIC   0/13
ENET.POLITICS   0/4
ENET.SOFT   0/11701
ENET.SYSOP   34388
ENET.TALKS   0/32
ENGLISH_TUTOR   0/2000
EVOLUTION   0/1335
FDECHO   0/217
FDN_ANNOUNCE   0/7068
FIDONEWS   25209
FIDONEWS_OLD1   0/49742
FIDONEWS_OLD2   0/35949
FIDONEWS_OLD3   0/30874
FIDONEWS_OLD4   0/37224
FIDO_SYSOP   12977
FIDO_UTIL   0/180
FILEFIND   0/209
FILEGATE   0/212
Möte HAM, 16786 texter
 lista första sista föregående nästa
Text 317, 749 rader
Skriven 2005-04-01 00:00:50 av Amsat List (1:323/120.0)
Ärende: 
========
SB KEPS @ AMSAT  $ORB05090.O
Orbital Elements  05090.OSCAR

HR AMSAT ORBITAL ELEMENTS FOR OSCAR SATELLITES
FROM WA5QGD FORT WORTH,TX March 31, 2005
SEND SUBSCRIBE/UNSUBSCRIBE TO majordomo@amsat.org ONLY
BID: ORB05090.O
TO ALL RADIO AMATEURS BT

Satellite: AO-07
Catalog number: 07530
Epoch time:      05089.70226089
Element set:    0412
Inclination:      101.6404 deg
RA of node:       137.4595 deg
Eccentricity:    0.0012140
Arg of perigee:   027.9181 deg
Mean anomaly:     332.2540 deg
Mean motion:   12.53570957 rev/day
Decay rate:       -2.8e-07 rev/day^2
Epoch rev:           38981
Checksum:              285

Satellite: AO-10
Catalog number: 14129
Epoch time:      05089.05808756
Element set:    0167
Inclination:      027.1877 deg
RA of node:       039.8219 deg
Eccentricity:    0.6036080
Arg of perigee:   176.8911 deg
Mean anomaly:     190.1627 deg
Mean motion:   02.05866301 rev/day
Decay rate:      -1.12e-06 rev/day^2
Epoch rev:           16390
Checksum:              304

Satellite: UO-11
Catalog number: 14781
Epoch time:      05090.82459704
Element set:     748
Inclination:      098.2017 deg
RA of node:       086.8430 deg
Eccentricity:    0.0008088
Arg of perigee:   244.3663 deg
Mean anomaly:     115.6746 deg
Mean motion:   14.79197528 rev/day
Decay rate:       3.54e-06 rev/day^2
Epoch rev:           13036
Checksum:              321

Satellite: RS-10/11
Catalog number: 18129
Epoch time:      05089.67012257
Element set:     648
Inclination:      082.9222 deg
RA of node:       296.2184 deg
Eccentricity:    0.0010260
Arg of perigee:   243.0003 deg
Mean anomaly:     117.0114 deg
Mean motion:   13.72756605 rev/day
Decay rate:        6.7e-07 rev/day^2
Epoch rev:           89030
Checksum:              273

Satellite: FO-20
Catalog number: 20480
Epoch time:      05089.57086138
Element set:    0863
Inclination:      099.0207 deg
RA of node:       278.7409 deg
Eccentricity:    0.0540770
Arg of perigee:   057.8487 deg
Mean anomaly:     307.3878 deg
Mean motion:   12.83346154 rev/day
Decay rate:        1.2e-07 rev/day^2
Epoch rev:           70941
Checksum:              327

Satellite: RS-12/13
Catalog number: 21089
Epoch time:      05089.76653745
Element set:    0876
Inclination:      082.9233 deg
RA of node:       329.0994 deg
Eccentricity:    0.0027974
Arg of perigee:   300.4211 deg
Mean anomaly:     059.4196 deg
Mean motion:   13.74449490 rev/day
Decay rate:        7.4e-07 rev/day^2
Epoch rev:           70972
Checksum:              342

Satellite: RS-15
Catalog number: 23439
Epoch time:      05089.82366192
Element set:    0926
Inclination:      064.8155 deg
RA of node:       234.2804 deg
Eccentricity:    0.0162031
Arg of perigee:   330.0424 deg
Mean anomaly:     029.1303 deg
Mean motion:   11.27551329 rev/day
Decay rate:       -3.9e-07 rev/day^2
Epoch rev:           42255
Checksum:              280

Satellite: FO-29
Catalog number: 24278
Epoch time:      05089.74406550
Element set:    0929
Inclination:      098.5543 deg
RA of node:       149.8716 deg
Eccentricity:    0.0351068
Arg of perigee:   019.7148 deg
Mean anomaly:     341.7179 deg
Mean motion:   13.52909437 rev/day
Decay rate:       -1.2e-07 rev/day^2
Epoch rev:           42558
Checksum:              344

Satellite: SO-33
Catalog number: 25509
Epoch time:      05090.51515286
Element set:     334
Inclination:      031.4297 deg
RA of node:       111.6232 deg
Eccentricity:    0.0355908
Arg of perigee:   207.1886 deg
Mean anomaly:     150.9679 deg
Mean motion:   14.27974044 rev/day
Decay rate:       1.89e-06 rev/day^2
Epoch rev:           33571
Checksum:              314

Satellite: AO-40
Catalog number: 26609
Epoch time:      05090.09765388
Element set:     520
Inclination:      008.2350 deg
RA of node:       312.2604 deg
Eccentricity:    0.7949627
Arg of perigee:   023.1960 deg
Mean anomaly:     358.5994 deg
Mean motion:   01.25587781 rev/day
Decay rate:      -2.58e-06 rev/day^2
Epoch rev:            2028
Checksum:              320

/EX
SB KEPS @ AMSAT  $ORB05090.D
Orbital Elements  05090.MICROS

HR AMSAT ORBITAL ELEMENTS FOR THE MICROSATS
FROM WA5QGD FORT WORTH,TX March 31, 2005
SEND SUBSCRIBE/UNSUBSCRIBE TO majordomo@amsat.org ONLY
BID: ORB05090.D
TO ALL RADIO AMATEURS BT

Satellite: UO-14
Catalog number: 20437
Epoch time:      05089.62409982
Element set:    0742
Inclination:      098.1963 deg
RA of node:       103.7326 deg
Eccentricity:    0.0011809
Arg of perigee:   069.3187 deg
Mean anomaly:     290.9272 deg
Mean motion:   14.31404236 rev/day
Decay rate:        4.0e-08 rev/day^2
Epoch rev:           79279
Checksum:              316

Satellite: AO-16
Catalog number: 20439
Epoch time:      05089.64310125
Element set:     430
Inclination:      098.2141 deg
RA of node:       119.0094 deg
Eccentricity:    0.0012033
Arg of perigee:   076.8067 deg
Mean anomaly:     283.4452 deg
Mean motion:   14.31666543 rev/day
Decay rate:        4.8e-07 rev/day^2
Epoch rev:           79285
Checksum:              289

Satellite: WO-18
Catalog number: 20441
Epoch time:      05090.83986403
Element set:     625
Inclination:      098.2256 deg
RA of node:       124.4519 deg
Eccentricity:    0.0012813
Arg of perigee:   073.8331 deg
Mean anomaly:     286.4260 deg
Mean motion:   14.31740808 rev/day
Decay rate:        3.6e-07 rev/day^2
Epoch rev:           79308
Checksum:              297

Satellite: LO-19
Catalog number: 20442
Epoch time:      05089.67923661
Element set:    0359
Inclination:      098.2343 deg
RA of node:       127.7359 deg
Eccentricity:    0.0013074
Arg of perigee:   075.4549 deg
Mean anomaly:     284.8084 deg
Mean motion:   14.31912510 rev/day
Decay rate:        4.5e-07 rev/day^2
Epoch rev:           79298
Checksum:              329

